Location: �perlecques
(50.8057°N, 2.1521°E)
Time: 11:03:44
(UTC+00:00)

Vanguard 1 Rocket - Pass Details

Date: 31 July 2021
Orbit: 650 x 4226 km, 34.3° (Epoch: 19 September)

Event Time Altitude Azimuth Distance (km) Brightness Sun altitude
Rises 12:55:34 0° 255° (WSW) 6,706 12.1 55.4°
Reaches altitude 10° 13:01:28 10° 246° (WSW) 5,033 11.8 54.9°
Maximum altitude 13:11:35 28° 195° (SSW) 2,612 11.0 54.2°
Drops below altitude 10° 13:17:45 10° 139° (SE) 2,987 10.3 53.7°
Sets 13:20:17 0° 126° (SE) 3,646 10.5 53.4°
